Wind_Speed
8 8 9 9 8 8 8 7 7 7 7 8 8 8 8 8 9 9 9 10 10 10 11 11 11 12 13 14 15 16 17 19 20 21 22 22 23 23 23 23 22 21 21 20 20 20 20 19 20 20 20 21 21 22 22 23 24 24 24 24 24 23 23 21 21 20 20 20 19
6 6 5 5 5 6 6 7 7 7 7 7 7 7 8 8 9 9 9 10 10 10 11 12 13 14 15 16 17 17 18 18 19 20 21 22 22 23 23 23 22 22 21 21 20 20 20 20 20 20 20 21 21 22 22 23 23 22 23 23 23 23 22 21 21 21 20 20 19
0 1 1 1 2 3 4 5 6 6 6 7 7 7 7 8 8 9 9 9 10 11 13 14 15 16 17 18 18 18 18 18 19 19 20 21 22 22 22 22 22 22 22 22 21 21 21 20 20 20 20 21 21 21 22 22 22 22 21 22 22 21 21 20 20 19 19 19 19
2 1 0 1 1 2 3 4 5 6 6 6 7 7 8 8 8 9 9 10 11 12 14 15 16 16 17 17 18 18 18 18 18 19 19 20 21 21 21 22 22 22 23 23 22 22 21 21 20 20 20 21 21 22 22 22 22 21 21 21 21 20 20 19 18 18 18 18 18
4 3 2 1 0 1 2 3 4 5 5 6 6 7 7 7 8 8 9 10 11 12 13 14 15 15 16 16 17 17 18 18 18 18 19 19 20 20 21 21 22 22 23 23 23 23 22 21 21 20 21 21 21 22 22 22 21 21 21 21 20 20 19 18 17 17 17 18 17
4 4 3 2 2 1 1 1 2 3 4 5 5 5 5 6 7 7 8 9 10 11 12 12 13 14 15 15 16 17 17 17 18 18 18 19 19 20 20 21 22 22 22 23 23 23 22 22 21 21 21 21 21 21 21 21 21 21 21 20 20 20 19 18 17 16 16 16 16
4 3 3 2 2 1 1 1 2 3 4 5 5 6 6 7 7 8 8 9 10 11 11 12 12 13 14 15 15 16 16 16 17 17 17 17 18 18 19 20 21 21 21 22 22 22 23 22 22 22 22 22 21 21 21 21 21 21 21 21 21 20 19 18 17 16 16 15 16
3 3 2 2 1 1 0 1 2 2 3 4 4 5 6 7 8 8 9 10 11 11 12 12 12 12 13 13 14 15 15 16 16 16 17 17 17 18 18 18 19 20 20 21 22 22 23 23 23 23 23 23 22 22 21 21 21 21 21 21 21 21 20 19 18 17 16 16 16
6 6 5 4 4 3 3 3 4 4 4 4 4 5 6 7 8 9 10 10 11 11 12 12 12 12 12 13 13 14 15 15 16 16 17 17 18 18 18 18 18 18 20 21 21 22 23 23 24 24 24 24 24 23 23 22 22 22 22 22 21 21 21 20 19 18 17 17 17
10 9 8 7 7 6 6 5 5 5 5 5 5 5 6 7 8 9 9 10 11 11 12 12 12 13 13 13 14 14 15 15 16 17 17 18 19 19 19 19 18 18 18 20 21 22 22 23 24 25 25 26 25 25 24 23 23 23 23 23 22 22 21 21 20 19 19 18 18
12 12 11 11 10 9 9 9 8 8 8 7 7 6 6 7 8 8 9 10 10 11 12 12 13 13 14 15 16 16 16 16 16 17 17 18 18 19 19 19 19 18 18 19 20 21 22 23 24 25 26 26 26 25 25 24 24 24 24 24 23 23 22 22 22 21 20 20 19
13 13 13 13 12 12 12 12 12 11 10 10 9 9 8 8 8 8 9 9 10 11 11 12 13 14 15 16 17 17 17 17 17 17 17 18 18 18 19 19 19 19 19 19 19 20 21 23 24 25 26 26 26 25 25 25 25 25 24 24 24 24 23 23 23 23 22 22 21
13 13 14 13 13 13 13 13 13 13 12 12 12 12 12 11 10 10 10 10 11 11 12 12 13 14 14 15 16 16 16 17 17 17 18 18 18 19 19 19 19 19 20 20 20 20 21 22 24 25 26 26 26 26 26 26 26 25 25 25 25 25 25 25 25 24 24 24 23
13 13 13 14 14 13 13 13 13 13 13 13 13 14 14 14 13 13 12 12 12 12 13 13 13 13 13 14 14 15 15 16 17 17 18 19 19 19 20 20 20 20 20 20 20 21 21 22 23 24 25 26 26 26 26 26 26 26 26 27 27 27 27 27 26 26 25 25 25
13 13 13 14 14 14 14 14 14 13 13 14 14 15 15 16 16 15 15 15 15 15 15 14 14 14 14 13 14 14 15 16 16 17 18 18 19 19 20 21 21 21 21 21 21 21 21 22 22 23 24 25 25 25 25 25 25 26 26 27 27 28 28 28 27 27 27 27 27
13 13 13 14 14 15 15 15 15 15 14 15 15 16 16 16 17 17 17 17 17 17 17 17 16 16 16 15 15 15 15 16 16 17 17 18 18 19 19 20 21 21 22 22 22 22 22 23 23 23 23 24 24 24 24 24 25 25 25 26 27 27 28 28 28 28 28 28 28
13 13 13 14 14 15 15 16 16 16 16 16 17 17 17 17 18 18 18 18 18 18 19 19 18 18 18 18 17 16 16 16 17 17 18 18 19 19 19 20 20 21 21 22 22 23 23 24 24 24 24 24 24 25 25 25 25 25 25 26 26 27 27 27 27 27 27 28 28
13 13 13 14 15 15 15 16 16 16 17 17 18 18 18 18 18 18 19 19 18 19 19 19 19 19 19 19 19 18 17 17 17 18 18 19 20 20 21 21 21 21 21 22 22 23 23 24 24 25 25 25 26 26 26 26 26 26 26 26 27 27 27 26 26 26 26 27 27
13 13 14 14 15 15 15 15 16 16 17 17 18 18 18 18 18 19 19 19 19 19 19 19 20 20 20 19 19 19 19 18 19 19 19 20 20 21 22 22 22 22 22 22 23 23 23 23 24 24 25 25 26 26 26 26 27 27 27 27 27 27 26 26 26 26 26 26 26
13 13 14 14 14 14 14 14 15 15 16 16 17 17 17 17 17 18 18 19 19 19 19 19 20 20 20 20 20 20 20 20 20 20 21 21 21 21 22 22 23 23 23 22 23 23 23 23 23 24 24 25 25 26 26 26 27 27 27 27 27 27 27 26 26 26 25 25 25
13 13 14 14 14 14 14 14 14 14 15 15 15 16 16 16 16 17 17 18 18 18 19 19 19 20 20 21 21 22 22 22 22 22 22 22 22 22 22 22 22 22 22 22 22 22 23 23 23 23 24 24 25 26 26 26 26 26 27 27 27 27 27 27 26 26 26 25 25
13 13 14 14 14 13 13 14 14 14 15 15 15 15 16 16 16 17 17 17 17 18 18 19 19 20 20 21 22 22 23 24 24 24 24 23 23 23 23 22 22 23 23 22 22 22 23 23 23 23 24 24 25 26 26 26 25 26 26 26 27 27 27 27 26 26 26 26 25
13 14 14 14 14 14 14 14 14 15 15 16 16 16 17 17 17 17 17 17 18 18 18 19 19 20 20 21 22 22 23 24 24 24 24 24 24 24 24 23 23 24 24 24 24 23 23 24 24 24 24 24 25 25 26 26 26 25 26 26 26 26 26 26 26 26 26 26 25
14 15 15 15 15 15 15 15 16 16 17 17 18 18 18 19 19 19 19 19 19 19 19 20 20 20 21 21 21 22 22 23 24 24 24 24 24 24 24 24 24 24 24 25 25 25 24 24 25 25 25 25 25 25 25 26 26 26 26 25 25 25 25 25 25 25 25 26 26
15 16 16 16 16 16 16 17 17 18 18 19 19 20 20 20 20 20 21 21 21 21 21 21 21 22 21 21 21 21 22 22 23 23 24 24 24 24 24 24 24 24 24 24 25 25 25 24 24 25 25 25 26 26 26 26 26 26 25 25 25 25 25 25 25 25 25 26 26
16 17 17 17 17 17 18 18 18 19 20 20 21 21 21 22 22 22 22 23 23 23 23 23 23 23 22 22 22 22 22 22 22 23 23 24 24 24 24 24 23 23 23 23 24 24 25 25 24 25 25 25 26 26 26 26 26 26 26 25 25 24 24 24 25 25 25 26 26
17 17 18 18 18 18 19 19 20 20 21 21 22 22 22 23 23 23 24 24 25 25 25 25 24 24 23 23 23 23 23 23 23 23 23 23 24 24 24 24 23 23 23 23 23 24 25 25 25 25 26 26 27 27 27 27 27 26 26 25 25 25 25 25 25 25 25 26 26
18 18 18 19 19 20 20 20 21 21 22 22 23 23 24 24 24 25 25 26 26 26 26 26 25 25 25 24 24 24 24 24 24 24 24 24 24 24 24 24 24 23 23 23 23 24 25 26 26 27 27 27 28 28 28 28 27 26 25 25 25 25 25 26 26 25 25 25 25
18 18 19 20 20 21 21 21 22 22 23 23 24 24 25 25 25 26 26 26 26 26 26 26 26 25 25 25 25 25 25 25 25 25 25 25 26 26 26 25 25 25 25 24 24 24 25 26 27 28 29 29 29 29 29 29 28 27 26 26 25 25 26 26 26 26 26 25 25
18 19 19 20 21 21 22 22 22 23 23 23 24 24 25 25 25 25 26 26 26 26 25 25 25 25 25 25 25 26 26 26 26 25 25 26 26 26 26 26 26 26 26 26 25 25 25 26 27 28 29 30 30 30 30 30 29 28 28 27 27 27 27 27 27 27 27 26 26
18 19 20 20 21 22 22 22 22 22 22 23 23 24 24 24 24 24 24 24 25 25 24 24 24 25 25 25 25 25 26 26 26 25 25 26 26 26 27 27 27 27 27 27 26 26 26 26 27 28 29 30 30 31 31 31 30 30 29 29 28 28 28 28 28 28 28 28 27
18 19 19 20 20 21 21 21 21 21 22 22 22 23 23 23 23 23 23 23 24 24 24 24 24 25 25 25 25 25 25 26 26 25 25 26 26 26 27 27 27 27 26 26 26 26 26 26 26 27 28 29 30 31 31 32 32 31 31 31 31 30 30 29 29 29 29 29 28
17 18 19 19 20 20 20 21 21 21 22 22 22 22 22 23 23 23 23 23 23 23 24 24 24 25 25 25 26 26 26 26 26 26 26 26 26 27 27 28 27 27 26 25 25 25 26 26 27 27 28 29 30 31 32 33 32 32 32 32 32 32 31 31 31 30 30 30 30
17 18 18 19 19 20 20 20 21 21 22 22 22 22 22 23 23 24 24 24 24 24 24 24 24 25 25 25 25 26 26 26 26 26 26 26 27 27 28 28 27 27 26 26 26 26 27 27 27 28 28 29 30 32 33 33 33 32 32 32 32 32 32 32 32 32 32 31 31
17 17 18 19 19 19 20 20 21 21 22 22 23 23 23 23 23 24 24 24 24 25 25 25 25 25 25 26 26 26 26 27 27 27 28 28 28 28 29 30 30 29 28 27 27 27 28 28 28 28 29 29 30 31 31 31 32 32 32 33 33 33 33 33 33 33 33 32 32
16 17 18 19 19 20 20 21 21 21 22 22 23 24 24 24 24 24 24 25 25 25 26 26 26 26 26 26 27 26 27 27 28 29 29 29 28 29 30 31 32 31 30 29 29 29 28 28 28 28 28 28 29 29 30 30 30 31 32 32 33 33 33 33 33 33 33 33 32
16 17 18 19 19 20 20 21 21 21 22 23 23 24 24 25 25 25 24 24 25 25 26 26 26 26 27 27 27 28 28 28 29 29 30 29 29 30 31 32 33 33 32 31 30 30 29 29 28 28 28 28 28 28 29 29 29 29 30 31 32 33 33 33 33 33 33 33 33
17 17 18 19 20 20 21 21 22 22 23 24 24 24 25 25 25 25 24 24 24 25 26 26 27 27 27 28 28 29 29 29 29 30 30 30 30 30 31 32 33 34 33 32 31 31 30 29 29 28 27 27 27 28 28 28 28 28 28 29 31 32 32 32 32 32 32 33 34
17 18 19 20 20 21 21 22 22 22 23 24 24 24 25 25 25 25 24 24 24 24 25 26 27 27 28 28 29 30 31 31 30 30 31 31 31 31 32 32 34 35 34 33 32 31 30 30 29 28 28 27 27 27 27 27 28 27 27 27 29 30 31 31 31 31 32 33 34
18 19 19 19 20 21 21 21 22 22 23 23 24 24 24 24 24 24 24 24 24 24 25 26 27 28 29 29 29 30 32 33 32 32 32 32 32 32 32 33 34 35 34 33 32 32 31 31 30 29 28 27 26 25 25 26 28 28 28 28 27 27 28 29 29 30 31 32 33
19 19 19 19 19 20 20 21 22 22 22 23 23 24 24 24 24 24 24 24 24 25 25 26 27 28 29 29 29 30 32 33 33 33 32 32 32 32 32 32 33 34 34 34 33 33 32 32 31 30 29 28 27 26 25 25 26 28 28 28 27 25 25 26 28 29 31 31 32
Wind_Direction
230 234 237 240 243 246 248 249 250 253 259 266 272 279 284 288 289 290 290 291 292 293 294 296 297 299 302 303 305 306 307 307 307 308 308 308 308 308 309 309 308 306 304 301 298 294 291 288 285 282 278 275 271 268 264 261 257 253 250 247 245 243 240 236 233 232 231 230 229
238 243 246 249 254 256 256 254 256 260 266 272 277 280 283 283 282 283 285 288 291 295 298 300 302 304 305 305 304 304 304 304 304 304 304 304 303 303 303 304 303 302 300 297 294 290 287 285 282 278 274 271 267 263 260 258 254 250 246 244 242 240 238 235 234 234 234 231 229
255 275 280 286 290 280 270 263 264 267 272 276 277 277 277 279 282 287 292 298 303 307 308 308 308 308 307 306 305 303 302 302 301 301 301 300 299 298 297 298 298 297 295 292 289 286 283 281 279 275 270 266 262 259 256 254 252 248 244 242 240 238 234 232 232 232 229 224 221
100 121 162 327 330 313 294 286 284 284 285 287 286 284 284 287 292 300 306 311 312 312 311 310 310 308 307 305 303 301 299 298 297 296 295 294 294 293 292 292 292 291 290 288 285 283 280 278 275 270 266 262 258 256 254 253 251 248 245 242 239 236 232 230 229 226 222 218 215
115 117 118 104 54 315 291 289 289 288 288 289 291 292 295 301 306 311 313 312 310 309 308 307 306 304 301 299 297 295 293 292 290 288 287 287 288 288 288 287 287 287 285 283 281 279 277 274 270 266 262 259 256 255 254 253 251 248 245 242 238 235 233 230 227 223 219 216 214
107 112 118 121 118 138 201 251 272 278 278 278 282 288 292 296 299 300 300 300 299 299 298 298 297 296 294 292 290 289 288 286 285 284 282 282 283 284 285 285 285 284 282 280 277 275 273 270 265 262 259 257 255 255 255 254 251 248 244 240 237 236 233 230 228 226 223 220 219
106 109 115 120 122 137 170 227 261 276 281 285 291 295 296 294 291 289 288 286 286 286 287 288 288 289 289 289 288 287 287 286 285 284 282 281 281 281 283 284 284 282 279 277 275 272 270 267 262 258 256 255 254 253 253 253 250 247 243 239 238 236 234 233 232 232 230 229 229
84 76 71 66 61 48 341 306 299 302 307 314 320 320 317 311 304 298 293 290 288 287 286 285 285 285 286 288 288 288 288 286 286 285 283 282 281 282 282 283 282 280 277 275 273 270 268 265 260 257 254 253 252 252 252 251 249 246 242 239 238 237 236 235 236 236 236 236 236
52 44 35 26 14 1 348 335 325 321 322 325 329 329 326 321 315 310 306 303 299 295 292 290 288 287 286 286 287 288 288 288 287 286 285 284 283 283 284 283 282 281 278 276 273 270 267 263 260 257 255 253 252 251 250 248 246 243 241 239 238 237 238 238 238 239 238 237 236
46 42 39 34 29 21 13 7 1 357 353 350 345 340 334 329 325 321 317 313 309 306 303 300 298 295 292 289 288 288 288 289 288 288 287 286 286 285 285 285 284 282 280 278 275 272 268 264 260 258 256 254 252 251 249 247 244 241 239 239 238 237 238 239 240 239 238 237 236
43 42 41 39 36 33 31 29 28 26 22 15 7 357 348 340 335 330 324 318 315 313 311 308 305 302 299 296 294 293 292 290 290 289 289 288 287 287 287 287 286 283 281 281 278 274 270 265 262 259 257 255 252 250 248 247 244 241 239 239 238 237 238 239 240 240 238 237 236
35 35 35 34 32 30 29 28 28 26 22 17 10 4 357 349 341 332 325 319 316 313 310 308 307 305 304 304 303 302 300 297 293 290 289 287 286 286 287 287 287 286 284 282 281 277 272 268 264 261 258 256 253 251 250 248 245 242 240 240 239 238 238 239 241 241 240 238 237
27 27 26 26 24 22 21 20 20 17 14 10 6 2 358 354 349 341 333 326 319 314 310 307 306 305 305 306 307 307 305 302 298 294 290 286 284 283 283 284 284 285 284 283 282 278 274 271 268 264 260 258 256 255 254 252 249 245 243 243 242 241 240 241 242 242 241 239 237
23 21 19 18 16 14 13 13 12 9 5 2 359 356 355 354 352 349 344 337 330 324 319 315 311 308 305 304 304 303 303 302 300 296 293 289 286 284 282 281 280 280 280 280 280 278 275 272 269 266 263 261 259 259 258 256 253 250 248 247 245 244 244 244 244 243 241 239 238
18 15 12 10 8 6 5 5 4 1 358 354 351 350 349 348 348 347 344 341 337 334 331 327 323 318 313 307 302 299 298 297 297 296 294 292 289 287 284 282 280 278 277 276 276 275 274 273 270 268 265 263 261 260 260 258 257 255 253 251 249 249 248 247 246 244 242 240 238
13 9 6 3 0 359 357 356 354 352 349 347 345 344 343 342 342 342 340 338 337 336 335 333 330 327 323 318 312 306 301 297 295 294 293 292 290 289 287 285 282 280 277 274 273 272 272 272 271 270 267 265 263 261 260 260 259 258 256 255 254 253 252 251 249 246 244 242 240
6 3 359 356 354 352 350 348 346 344 342 340 339 339 338 338 337 336 336 335 335 333 332 330 329 327 325 323 320 315 310 304 299 295 292 290 288 287 286 285 283 282 280 277 274 272 270 269 269 269 268 266 265 264 263 262 261 261 260 259 257 255 254 253 251 248 246 244 242
0 356 353 350 349 347 345 343 341 338 337 335 334 334 334 334 333 332 332 332 331 330 327 326 325 324 322 320 319 317 313 308 304 299 294 291 288 286 284 283 282 282 281 280 277 274 271 268 266 266 266 266 265 265 264 263 263 263 262 261 259 257 255 253 251 249 247 245 245
355 351 348 346 344 343 341 338 336 333 332 331 330 330 330 330 329 328 327 327 327 326 324 322 321 320 318 317 315 314 311 308 305 302 299 295 291 288 285 284 282 281 280 279 278 276 274 270 267 265 264 264 264 264 264 264 263 263 262 261 260 258 255 253 251 249 248 247 246
351 348 345 342 340 339 337 335 332 329 327 326 326 326 326 326 325 324 323 322 322 321 320 318 317 317 315 314 313 311 309 308 306 304 302 299 296 292 289 287 285 283 281 279 277 276 275 272 269 266 263 262 262 263 263 263 263 263 262 261 260 259 257 255 253 251 249 248 247
347 344 341 339 338 336 333 330 327 325 323 322 322 322 321 320 320 319 318 317 317 317 316 315 315 314 313 312 311 309 308 308 307 305 304 302 299 296 292 289 287 284 282 279 277 275 274 273 270 266 263 261 261 261 262 263 263 263 262 261 260 259 258 257 255 253 251 250 249
343 339 338 337 336 334 330 327 325 322 321 320 319 318 317 316 316 315 314 313 313 313 313 313 312 311 311 310 309 308 307 307 307 306 305 304 302 299 296 292 288 285 282 279 276 274 273 272 270 267 263 261 260 260 260 260 260 261 261 260 259 259 258 257 256 254 252 251 250
339 337 336 336 335 332 329 327 324 323 322 320 319 318 317 317 316 315 314 313 312 312 311 311 310 310 309 308 307 306 306 306 306 306 306 305 304 302 299 296 291 287 284 280 277 275 272 271 269 267 264 261 259 258 258 258 258 257 257 258 258 257 257 256 255 254 253 252 250
337 336 336 336 334 332 330 328 326 325 324 323 322 321 320 319 318 318 317 316 314 313 312 311 310 309 308 307 305 305 304 304 304 305 306 306 305 304 302 298 294 290 287 284 281 278 275 271 269 267 265 262 260 258 257 257 256 254 254 254 254 254 254 254 254 254 253 252 250
337 337 336 335 334 332 331 330 329 327 326 324 324 323 322 321 321 320 319 317 316 315 314 313 312 311 310 308 306 304 303 302 302 303 304 305 305 304 303 300 296 293 289 286 284 282 279 275 271 268 266 264 262 260 258 257 255 253 252 251 250 250 251 251 251 252 252 251 249
338 337 337 335 334 333 332 331 330 328 327 325 325 324 323 322 321 320 319 317 316 316 315 314 314 313 312 310 308 306 304 302 302 302 302 302 303 303 302 300 297 294 291 288 286 284 282 279 275 272 269 266 264 262 260 258 256 254 253 250 248 247 247 247 248 248 249 249 248
339 338 336 335 334 333 332 331 329 328 327 326 325 324 323 322 321 319 318 317 316 316 316 315 315 314 313 312 309 306 304 303 302 301 301 300 300 300 300 299 297 295 292 290 288 286 284 282 279 275 272 268 265 263 261 260 258 257 254 251 249 247 246 246 247 247 248 247 247
339 337 335 333 333 332 331 330 329 327 326 325 324 323 321 320 319 318 317 316 316 316 316 315 315 315 313 311 309 306 304 303 301 300 299 299 298 298 297 296 296 295 293 292 290 289 287 285 282 279 275 272 268 265 263 261 259 258 255 253 251 249 248 247 248 248 247 245 244
337 335 333 332 331 329 328 328 327 326 324 323 321 320 319 318 317 316 315 315 315 314 314 314 313 312 311 308 306 305 303 301 300 299 298 297 296 295 295 295 294 294 294 293 292 291 290 288 285 282 279 275 270 266 264 261 260 258 257 255 253 251 250 249 248 248 246 245 243
335 333 331 330 328 327 326 325 324 322 321 319 318 317 316 315 314 314 313 313 312 311 311 310 309 308 306 304 303 302 301 300 298 297 296 294 293 293 292 293 293 293 293 293 293 292 291 289 287 285 283 279 273 268 264 262 260 258 257 256 254 253 252 251 249 248 246 245 243
332 330 329 327 325 324 322 321 320 318 317 316 314 313 312 312 311 311 310 310 309 309 308 307 306 304 303 302 301 301 300 299 299 298 296 295 293 292 292 292 291 291 292 292 292 291 290 289 287 286 285 283 278 271 266 262 260 258 257 256 255 253 252 251 250 248 246 244 242
329 328 326 324 322 320 318 317 316 315 313 312 311 311 310 309 309 309 309 308 308 308 307 306 305 304 303 303 302 301 301 300 300 299 298 297 296 295 294 293 292 292 292 292 292 292 291 290 288 287 286 285 282 276 269 264 260 258 257 256 255 254 252 251 250 248 247 244 242
326 324 323 320 318 317 315 315 314 313 312 312 311 310 310 309 309 310 310 310 309 308 307 306 305 305 304 303 303 302 302 301 300 300 299 299 298 297 297 296 294 293 293 292 292 291 291 290 289 287 286 285 284 280 273 266 261 258 257 255 254 253 252 251 249 248 247 245 242
323 321 319 318 316 316 315 315 315 314 314 313 312 311 311 311 311 311 311 311 311 310 308 307 306 305 304 303 303 303 302 302 301 300 300 299 299 298 297 296 295 294 294 294 292 292 291 290 288 287 285 285 285 283 277 270 262 257 255 254 254 253 252 251 250 249 247 245 243
320 319 318 317 317 317 316 317 317 316 315 314 313 313 313 313 312 312 313 313 312 311 309 308 307 306 305 305 304 303 302 302 301 301 300 300 299 298 297 296 295 294 294 294 293 292 291 290 288 286 285 286 286 285 281 274 265 259 255 253 253 253 252 252 251 249 247 245 243
319 318 317 317 317 317 317 317 317 317 316 315 314 314 314 314 314 314 314 314 313 312 311 310 309 308 307 306 306 305 303 303 302 302 301 300 299 298 296 295 295 294 294 293 293 292 291 290 288 287 286 286 286 285 282 277 269 262 257 255 253 253 253 253 251 249 247 245 242
319 318 317 317 316 316 316 316 316 316 315 315 315 315 315 315 315 315 315 315 314 312 311 310 310 309 308 307 307 305 304 303 303 302 301 300 299 297 296 295 294 294 294 293 293 292 291 289 288 287 286 285 284 283 282 278 271 264 259 255 254 254 254 253 251 249 247 244 242
319 319 317 316 315 314 315 315 315 315 315 315 315 315 315 315 314 314 314 314 313 312 311 310 309 308 308 307 306 305 304 302 301 300 299 298 297 296 295 295 294 293 293 293 293 292 291 289 288 286 284 283 282 281 281 279 274 268 261 256 254 254 254 253 251 249 246 244 241
319 318 317 315 314 314 315 315 315 315 315 315 315 315 315 315 314 313 313 313 312 310 309 308 307 307 307 306 305 304 302 301 300 299 298 297 296 295 294 293 292 292 292 292 292 291 290 289 288 286 284 281 279 278 278 278 276 272 266 260 256 254 253 252 250 247 245 243 241
320 318 317 316 315 315 315 315 315 315 315 314 314 314 314 314 313 312 312 312 310 309 308 306 305 305 305 305 304 302 301 300 299 298 296 295 295 294 293 291 291 291 291 291 290 290 289 289 288 286 284 281 278 276 275 275 275 274 270 265 260 256 253 251 248 246 244 242 241
321 320 318 317 316 315 315 314 314 314 313 313 313 313 313 312 312 311 311 310 309 308 306 305 304 304 303 303 302 301 300 299 298 297 296 295 294 293 292 291 290 290 290 290 289 289 288 288 287 285 283 280 278 275 273 273 273 272 271 268 264 259 255 252 248 245 243 241 239
Height
781 781 782 782 783 783 784 785 785 785 785 785 785 784 784 783 783 783 783 783 783 783 783 783 783 783 783 783 783 783 783 783 782 782 782 782 781 781 781 781 781 781 781 781 781 781 781 780 780 780 780 780 780 780 780 780 781 781 781 781 781 781 781 781 782 782 782 782 783
781 781 782 782 782 783 784 784 785 785 785 785 784 784 783 783 782 782 782 782 782 782 782 782 782 782 782 782 782 782 782 782 781 781 781 780 780 780 780 780 780 780 780 780 780 780 780 780 780 780 780 779 779 779 779 779 780 780 780 780 780 780 780 780 780 780 781 781 781
781 782 782 782 782 783 783 784 784 785 785 784 784 784 783 783 782 782 781 781 781 781 781 781 781 781 781 781 781 781 781 781 780 780 780 780 780 780 780 780 780 780 780 780 779 779 779 779 779 779 779 779 779 779 779 779 779 779 780 780 780 780 779 779 779 780 780 780 780
782 782 782 782 782 783 783 784 784 785 785 784 784 783 783 782 782 781 781 780 780 780 780 780 780 780 781 781 780 780 780 780 780 780 780 779 779 779 779 779 779 779 779 778 778 778 778 778 778 778 778 778 778 778 778 778 778 778 779 779 779 779 779 779 779 779 779 780 780
783 783 782 782 783 783 784 785 785 785 785 785 784 784 783 782 781 781 781 780 780 780 780 780 780 780 780 780 780 780 780 780 780 780 779 779 779 779 779 778 778 778 778 778 777 777 777 777 777 777 776 776 776 776 777 777 777 777 777 778 778 778 778 778 778 779 779 779 779
783 782 782 782 782 783 783 784 785 785 785 785 784 784 783 782 782 781 781 781 781 781 781 781 781 781 780 780 780 780 780 780 779 779 779 779 779 778 778 778 777 777 777 777 777 776 776 776 776 775 775 775 775 775 776 776 776 776 776 776 777 777 777 778 778 778 778 778 778
782 782 782 782 782 783 783 784 784 785 785 784 783 783 782 782 781 781 781 781 781 781 781 781 781 781 780 780 780 780 779 779 779 779 778 778 778 777 777 777 777 777 776 776 776 776 775 775 775 775 775 774 774 775 775 775 775 775 775 775 775 775 776 776 776 777 777 777 777
782 782 782 782 782 783 783 784 784 784 784 784 783 782 782 781 781 781 781 781 781 781 781 781 781 781 780 780 780 780 779 779 778 778 778 777 777 777 776 776 776 776 776 775 775 775 775 775 775 774 774 774 773 773 774 774 774 774 774 774 774 774 774 774 775 775 775 776 776
781 781 782 782 782 783 783 784 784 784 783 783 782 782 781 781 781 781 780 780 780 780 780 780 780 780 780 780 780 779 779 779 778 778 777 777 776 775 775 775 775 775 775 775 775 774 774 774 774 773 773 773 772 772 772 772 772 772 772 772 772 773 773 773 773 773 774 774 774
781 781 782 782 783 783 783 784 783 783 783 782 781 781 780 780 780 780 780 780 780 780 780 780 779 779 779 779 779 778 778 778 778 777 777 776 775 775 774 774 774 774 774 774 774 774 774 773 773 773 772 772 771 771 771 771 771 771 770 771 771 771 771 771 771 772 772 772 773
782 782 782 783 783 783 783 783 783 782 782 781 780 780 780 780 779 779 779 779 779 779 779 779 779 778 778 778 777 777 777 777 776 776 776 775 775 774 774 773 773 773 772 773 773 773 773 772 772 772 771 771 770 770 770 770 769 769 769 769 770 770 770 770 770 770 770 770 771
783 783 783 783 783 783 783 782 782 781 780 780 780 779 779 779 779 779 779 779 779 779 778 778 778 778 777 777 776 776 776 776 775 775 775 775 774 774 773 773 772 771 771 771 771 771 771 771 771 771 770 770 770 770 769 769 768 768 768 768 768 768 768 768 768 768 768 769 769
783 783 783 783 783 783 782 782 781 780 780 780 779 779 779 779 779 779 779 778 778 778 778 778 778 777 777 776 776 775 775 775 775 774 774 774 773 773 773 772 772 771 770 770 770 770 770 770 770 770 770 769 769 768 768 768 767 767 767 767 767 767 767 767 767 767 767 767 767
783 783 783 783 783 782 782 781 781 780 780 779 779 779 779 779 779 779 779 779 778 778 778 777 777 777 776 776 775 775 775 774 774 774 773 773 772 772 772 771 771 771 770 770 769 769 769 769 769 769 768 768 768 767 767 767 766 766 766 766 766 766 765 765 765 765 765 765 765
783 783 783 783 782 782 781 781 781 780 780 780 779 779 779 779 779 779 779 778 778 778 777 777 776 776 775 775 775 774 774 773 773 773 772 772 771 771 770 770 770 770 770 769 769 768 768 767 767 767 767 767 767 766 766 766 765 765 765 765 764 764 764 764 764 764 763 763 763
784 783 783 783 782 782 782 781 781 780 780 780 780 780 779 779 779 779 778 778 778 777 776 776 775 775 775 774 774 773 773 772 772 772 771 771 770 770 770 769 769 768 768 768 768 768 767 767 766 766 766 765 765 765 765 765 764 764 763 763 763 763 763 763 763 762 762 761 761
784 783 783 783 782 782 782 781 781 781 780 780 780 780 779 779 779 778 778 778 777 777 776 775 775 774 774 773 773 772 772 771 771 770 770 770 769 769 768 768 767 767 767 767 766 766 766 766 765 765 765 764 764 764 763 763 763 762 762 762 761 761 761 761 761 761 761 760 760
784 783 783 783 783 782 782 782 781 781 780 780 780 780 779 779 778 778 778 777 777 776 776 775 775 774 773 773 772 772 771 771 770 770 769 769 768 768 767 767 766 766 765 765 765 765 764 764 764 764 763 763 762 762 762 762 761 761 760 760 760 760 760 760 760 760 759 759 759
784 784 783 783 783 783 782 782 782 781 781 780 780 780 779 779 778 778 777 777 777 776 775 775 774 774 773 772 772 771 770 770 769 769 768 767 767 766 766 765 765 765 764 764 764 763 763 762 762 762 761 761 760 760 760 760 760 759 759 759 758 758 758 758 758 758 758 758 758
785 784 784 784 783 783 783 782 782 782 781 781 780 780 779 779 778 778 777 777 776 776 775 775 774 773 772 772 771 770 770 769 768 768 767 766 766 765 765 764 764 763 763 763 762 762 761 761 760 760 760 759 759 758 758 758 758 757 757 757 757 756 756 756 756 756 756 756 756
785 785 784 784 784 783 783 783 782 782 781 781 780 780 779 779 778 778 777 776 776 775 775 774 773 772 771 771 770 769 769 768 767 766 766 765 765 764 763 763 762 762 761 761 761 760 760 760 759 759 758 757 757 756 756 756 755 755 755 755 755 755 755 755 755 755 755 755 755
785 785 785 784 784 784 783 783 782 782 781 781 780 780 779 778 778 777 777 776 775 775 774 773 772 772 771 770 769 768 767 766 766 765 765 764 763 763 762 762 761 760 760 760 759 759 759 758 758 757 756 755 755 754 754 754 753 753 753 753 753 753 753 753 753 753 753 753 753
785 785 784 784 784 783 783 782 782 781 781 780 780 779 779 778 777 777 776 775 775 774 773 773 772 771 770 769 768 767 766 765 764 764 763 763 762 761 761 760 760 759 759 758 758 757 757 757 756 756 755 754 753 752 752 752 751 751 751 751 750 750 750 750 751 751 751 751 751
785 784 784 783 783 783 782 782 781 781 780 780 779 779 778 777 777 776 775 775 774 774 773 772 771 770 769 768 767 766 765 764 763 762 761 761 760 760 759 759 758 758 757 756 756 755 755 755 755 754 754 753 752 751 751 750 750 749 749 749 749 749 749 749 749 749 749 749 749
784 784 783 783 783 782 782 781 780 780 780 779 779 778 777 777 776 775 775 774 773 773 772 771 770 769 768 767 766 765 764 763 762 761 760 760 759 759 758 757 757 756 755 755 755 754 754 753 753 753 752 752 751 750 750 749 748 748 747 747 747 747 746 746 746 746 746 747 747
784 783 783 783 782 782 781 781 780 780 779 779 778 777 777 776 775 775 774 773 772 771 771 770 769 768 767 766 765 764 763 762 761 760 760 759 758 757 756 756 755 755 754 754 754 753 753 752 752 751 751 750 750 749 748 747 747 746 746 745 745 745 745 744 744 744 744 744 744
784 783 783 782 782 781 781 781 780 780 779 778 778 777 776 775 775 774 773 772 771 770 770 769 768 766 765 765 764 763 762 761 760 760 759 758 757 756 755 755 754 754 753 753 753 752 752 751 751 750 750 749 749 748 747 746 745 745 744 744 743 743 742 742 742 742 742 742 742
784 783 783 782 782 781 781 780 780 779 779 778 777 776 776 775 774 773 772 771 770 769 768 767 766 765 764 763 762 761 761 760 759 758 758 757 756 755 754 753 753 752 752 751 751 751 750 750 749 749 749 748 747 746 745 745 744 744 743 742 742 741 740 740 740 740 740 740 740
784 783 783 782 782 781 781 780 780 779 778 778 777 776 775 774 773 772 771 770 769 768 767 766 765 764 763 762 761 760 760 759 758 757 756 755 754 753 753 752 751 750 750 750 750 749 749 748 748 747 747 746 746 745 744 743 742 742 741 740 740 739 739 738 738 738 738 738 737
784 784 783 782 782 781 781 780 780 779 778 778 777 776 775 774 773 772 771 770 769 768 767 766 765 764 763 762 761 760 759 758 757 756 755 754 753 752 751 750 750 749 748 748 748 747 747 746 746 745 745 744 744 743 742 741 740 740 739 738 738 737 737 736 736 736 736 736 735
785 784 783 783 782 782 781 781 780 780 779 778 777 776 775 774 773 772 771 770 769 767 766 765 764 763 762 761 760 759 758 757 756 755 754 753 752 750 749 749 748 747 747 746 746 745 745 744 744 743 743 742 742 740 739 738 738 737 736 736 735 735 735 735 734 734 734 734 734
785 785 784 784 783 782 782 781 780 780 779 778 777 775 775 773 772 771 770 769 768 767 765 765 763 762 761 760 759 758 757 756 755 754 753 752 750 749 748 747 746 745 745 745 744 744 743 742 742 741 741 741 740 739 737 736 735 735 734 733 733 733 732 732 732 732 732 732 731
786 785 785 784 783 782 782 781 780 779 778 777 776 775 774 773 771 770 769 768 767 766 765 764 763 761 760 759 758 757 756 755 754 753 752 750 750 748 747 745 745 744 744 743 743 742 741 741 740 740 739 739 738 737 735 734 733 732 731 731 730 730 730 730 730 730 729 729 729
786 785 785 784 783 782 781 780 779 778 777 776 775 774 773 772 770 769 768 767 766 765 764 763 762 760 759 758 757 756 754 753 752 751 750 749 748 747 745 744 743 742 742 742 741 740 740 739 739 738 738 737 736 735 733 732 730 730 729 728 727 727 727 727 727 727 727 727 727
786 785 785 784 783 782 781 780 779 777 776 775 774 773 772 771 770 769 767 766 765 764 763 761 760 759 758 757 756 755 753 752 750 749 748 747 746 745 743 742 741 740 740 740 739 739 738 737 737 736 735 735 734 733 731 730 728 727 726 725 725 725 725 725 725 724 724 724 724
786 785 784 783 782 781 780 779 778 777 775 774 773 772 771 770 769 768 766 765 764 762 761 760 759 758 756 755 754 753 752 751 749 748 746 745 745 743 741 740 738 738 738 737 737 736 736 735 734 734 734 733 732 730 729 728 726 725 723 723 722 722 722 722 722 722 721 721 721
785 785 784 782 781 780 779 778 777 776 775 774 772 771 770 769 768 766 765 765 763 761 760 759 757 756 755 754 753 751 750 749 748 746 745 744 743 741 740 738 736 735 735 735 734 734 733 732 732 732 731 730 730 728 727 726 724 722 721 720 719 719 719 719 719 719 719 718 718
785 784 783 782 781 780 779 778 776 775 774 773 772 770 770 768 767 765 765 764 762 761 759 758 756 755 754 753 751 750 749 748 747 745 744 742 741 740 738 736 734 732 732 732 731 731 730 730 729 729 729 728 727 726 725 724 722 720 718 717 716 716 716 716 716 716 715 715 715
784 783 782 781 780 779 778 777 776 775 773 772 771 770 768 767 766 765 764 763 762 760 759 757 755 754 753 752 750 748 746 745 745 744 743 741 739 738 737 735 732 730 729 729 729 728 728 727 727 726 726 726 725 724 723 721 720 718 716 715 714 713 713 713 713 713 712 712 712
783 782 781 780 779 778 777 776 775 774 773 771 770 769 767 766 765 764 763 762 760 759 758 756 755 753 752 750 749 747 745 743 742 741 740 739 737 736 735 733 730 728 727 726 726 726 725 725 724 724 724 723 723 722 720 719 718 716 714 713 712 710 710 710 710 710 709 709 709
782 781 780 779 778 777 776 775 774 773 771 770 769 768 766 765 764 763 761 760 759 758 756 755 753 751 750 749 748 745 743 741 740 739 738 737 735 734 732 731 729 726 725 724 724 723 723 722 722 721 721 721 720 719 718 717 715 714 712 711 710 709 708 707 707 706 706 706 706